This demonstration page uses our WeatherBlox Daily Observations layout. Learn more.

Hourly Observations for November 27, 2016

Temp ( °F °C ) Dew Point ( °F °C ) Humidity (%) Winds ( mph kmh ) Pressure ( in mb ) Visibility ( mi km ) Precip ( " mm )
12:54 am 00:54 Clear 29 -1.7 27 -2.8 92 92 NNE 3 6 29.94 1014 10 16.0934 0 0
1:54 am 01:54 Clear 32 0 29 -1.7 88 88 Calm 29.93 1013 10 16.0934 0 0
2:54 am 02:54 Clear 30 -1.1 27 -2.8 88 88 Calm 29.9 1013 10 16.0934 0 0
3:54 am 03:54 Clear 31 -0.6 28 -2.2 89 89 Calm 29.87 1012 10 16.0934 0 0
4:54 am 04:54 Clear 30 -1.1 27 -2.8 88 88 Calm 29.85 1011 10 16.0934 0 0
5:54 am 05:54 Clear 39 3.9 35 1.7 86 86 SSE 3 6 29.81 1009 10 16.0934 0 0
6:54 am 06:54 Clear 42 5.6 38 3.3 85 85 S 10 17 29.77 1008 10 16.0934 0 0
7:54 am 07:54 Sunny 44 6.7 40 4.4 85 85 SSE 12 19 29.73 1007 10 16.0934 0 0
8:54 am 08:54 Mostly Sunny 47 8.3 43 6.1 86 86 SSE 15 24 29.69 1006 10 16.0934 0 0
9:25 am 09:25 Mostly Cloudy 50 10 45 7 82 82 SSE 15 24 29.68 1005 10 16.0934 0 0
9:54 am 09:54 Cloudy 51 10.6 46 7.8 83 83 SSE 14 22 29.66 1004 10 16.0934 0 0
10:54 am 10:54 Cloudy 51 10.6 46 7.8 83 83 SSE 14 22 29.64 1004 10 16.0934 0 0
11:54 am 11:54 Cloudy with Light Rain 51 10.6 49 9.4 92 92 SSE 13 20 29.59 1002 3 4.82802 0.03 0.762
12:15 pm 12:15 Cloudy with Light Rain 51 10.6 49 9.4 92 92 SE 13 20 29.56 1001 3 4.82802 0.01 0.254
12:54 pm 12:54 Cloudy with Light Rain 51 10.6 50 10 96 96 SSE 17 28 29.52 1000 1.75 2.816345 0.02 0.508
1:54 pm 13:54 Cloudy with Light Rain 51 10.6 50 10 96 96 SSE 15 24 29.46 998 2.5 4.02335 0.03 0.762
2:21 pm 14:21 Cloudy with Light Rain 52 11.1 50 10 93 93 SE 17 28 29.41 996 3 4.82802 0.01 0.254
2:45 pm 14:45 Cloudy with Light Rain 52 11.1 51 10.6 97 97 SE 17 28 29.38 995 2.5 4.02335 0.05 1.27
2:54 pm 14:54 Cloudy with Rain 52 11.1 51 10.6 97 97 SSE 17 28 29.38 995 2.5 4.02335 0.06 1.524
3:12 pm 15:12 Cloudy with Light Rain 54 12 52 11 94 94 SSE 20 31 29.35 994 4 6.43736 0 0
3:54 pm 15:54 Cloudy with Light Rain 53 11.7 52 11.1 96 96 SSE 20 31 29.32 993 4 6.43736 0.04 1.016
4:54 pm 16:54 Cloudy 54 12.2 52 11.1 93 93 SSE 22 35 29.27 991 8 12.87472 0.01 0.254
5:14 pm 17:14 Cloudy 55 13 54 12 94 94 SSE 22 35 29.23 990 9 14.48406 0 0
5:54 pm 17:54 Cloudy 57 13.9 53 11.7 87 87 S 29 46 29.2 989 10 16.0934 0 0
6:13 pm 18:13 Cloudy 57 13.9 53 11.7 87 87 S 32 52 29.21 989 10 16.0934 0 0
6:54 pm 18:54 Cloudy 57 13.9 53 11.7 87 87 S 28 44 29.17 988 9 14.48406 0 0
7:30 pm 19:30 Cloudy 57 13.9 53 11.7 87 87 S 26 43 29.15 987 9 14.48406 0 0
7:54 pm 19:54 Partly Cloudy 58 14.4 53 11.7 84 84 S 31 50 29.16 987 10 16.0934 0 0
8:54 pm 20:54 Clear 50 10 41 5 71 71 SW 18 30 29.21 989 10 16.0934 0 0
9:54 pm 21:54 Clear 48 8.9 40 4.4 74 74 SSW 17 28 29.22 989 10 16.0934 0 0
10:54 pm 22:54 Mostly Clear 47 8.3 39 3.9 74 74 SSW 14 22 29.23 990 10 16.0934 0 0
11:54 pm 23:54 Clear 46 7.8 38 3.3 73 73 SSW 13 20 29.23 990 10 16.0934 0 0

Powered by AerisWeather